Regional Weather Roundup
Issued by NWS Kansas City/Pleasant Hill, MO

Home | Current Version | Previous Version | Text Only | Print | Product List | Glossary On
Versions: 1 2 3 4 5 6 7 8 9 10 11 12 13 14 15 16 17 18 19 20 21 22 23 24 25 26 27 28 29 30 31 32 33 34 35 36 37 38 39 40 41 42 43 44 45 46 47 48 49 50
000
ASUS43 KEAX 041311
RWREAX

WEATHER ROUNDUP FOR EASTERN KANSAS AND NORTHWEST MISSOURI
NATIONAL WEATHER SERVICE KANSAS CITY/PLEASANT HILL MO
700 AM CST WED MAR 04 2015

KSZ040-057-103>105-MOZ028-029-037-043-041400-
...KANSAS CITY METROPOLITAN AREA...

CITY           SKY/WX    TMP DP  RH WIND       PRES   REMARKS
K.C. INTL      FLURRIES  19   9  65 N16G24    30.22R WCI   4
K.C. DOWNTOWN  MOCLDY    21   6  52 N10       30.23S WCI  10
LEES SUMMIT    CLOUDY    20   7  57 N14       30.21R WCI   7
OLATHE - IXD   CLOUDY    19   7  59 N16G25    30.21R WCI   4
OLATHE - OJC   CLOUDY    20   6  55 N18       30.20R WCI   5
LAWRENCE       CLOUDY    20   8  60 N10G21    30.25R WCI   9

$$

MOZ001>008-011>017-020>025-030>033-038>040-044>046-053-054-041400-
...NORTHERN AND CENTRAL MISSOURI...

CITY           SKY/WX    TMP DP  RH WIND       PRES   REMARKS
ST. JOSEPH     CLOUDY    18   9  68 N13       30.27R WCI   5
MOSBY          PTSUNNY   21   9  58 N13       30.25R WCI   9
WARRENSBURG    CLOUDY    21  10  63 N14       30.21R WCI   8
WHITEMAN AFB   FLURRIES  19  10  68 N17       30.19R WCI   4
CLINTON        LGT SNOW  23  19  86 NE16      30.20R WCI  10
SEDALIA        LGT SNOW  20  13  74 N22       30.19R VSB 3/4 WCI   3
WARSAW         NOT AVBL
MARSHALL       CLOUDY    25  14  63 N13G20    30.19  WCI  13
CHILLICOTHE      N/A     20   7  57 N9        30.25R WCI   9
MOBERLY        MOCLDY    19   9  63 N10       30.20  WCI   8
KIRKSVILLE     NOT AVBL

$$

MOZ041-047>049-056>058-063>065-088>090-097-041400-
...EASTERN AND SOUTHERN MISSOURI...

CITY           SKY/WX    TMP DP  RH WIND       PRES   REMARKS
ST. LOUIS INTL MOCLDY    26  14  60 N13G24    30.13R WCI  15
SPIRIT OF STL  CLOUDY    24  14  65 NW16      30.14R WCI  11
COLUMBIA       LGT SNOW  20  16  84 N14G23    30.16R VSB 1   WCI   7
JEFFERSON CITY CLOUDY    24  12  60 N16G24    30.17R WCI  11
MEXICO         CLOUDY    21  12  68 N20       30.17R WCI   6
HANNIBAL       CLOUDY    16   5  62 N14       30.17S WCI   1
ROLLA          CLOUDY    25  16  68 N16       30.08R WCI  12
OSAGE BEACH    CLOUDY    28  19  69 NW8G16    30.12R WCI  20
SPRINGFIELD    FRZ RAIN  29  25  85 N21       30.08R WCI  16
BRANSON        RAIN      32  32 100 N13       30.03R WCI  22
NEVADA         LGT SNOW  21  18  86 N20G25    30.19R WCI   6
JOPLIN         LGT SNOW  26  22  84 N15       30.11R FOG     WCI  14
WEST PLAINS    LGT RAIN  33  30  88 N10       30.00S FOG     WCI  25

$$

IAZ060-094-KSZ022-034>040-054-083-096-NEZ052-066-093-041400-
...KANSAS...SOUTHEAST NEBRASKA AND IOWA...

CITY           SKY/WX    TMP DP  RH WIND       PRES   REMARKS
TOPEKA         CLOUDY    21   9  59 N14G21    30.28R WCI   8
MANHATTAN      CLOUDY    21  12  68 NE13      30.26R WCI   9
EMPORIA        FLURRIES  19  12  74 N15G23    30.20R WCI   5
CHANUTE        LGT SNOW  20  16  84 NE18G24   30.18R FOG     WCI   5
WICHITA        FLURRIES  20  14  77 N16       30.20R WCI   6
OMAHA          MOCLDY    16   8  71 CALM      30.26S
LINCOLN        PTCLDY    14  10  84 W3        30.27R
FALLS CITY     PTCLDY    15  10  80 N7        30.25S WCI   5
LAMONI         CLOUDY    15   3  59 N15       30.22R WCI   0
DES MOINES     PTCLDY    12  -1  56 NW8       30.24R WCI   0

$$



USA.gov is the U.S. government's official web portal to all federal, state and local government web resources and services.